Location: Beuerbach
(48.1459°N, 10.9174°E)
Time: 02:18:26
(UTC+00:00)

Okean 2 - Pass Details

Date: 23 May 2024
Orbit: 540 x 553 km, 82.5° (Epoch: 13 June)

Event Time Altitude Azimuth Distance (km) Brightness Sun altitude
Exits shadow 00:50:29 43° 206° (SSW) 774 3.6 -17.8°
Maximum altitude 00:51:42 74° 280° (W) 568 3.2 -17.8°
Drops below altitude 10° 00:55:41 10° 6° (N) 1,815 7.1 -17.5°
Sets 00:57:52 0° 8° (N) 2,713 8.3 -17.3°
